UTA5550 USSS-USTR

Flight info

Callsign UTA5550
Flight time N/A
Altitude 21000
Route K0711F210 ANATU6B ANATU P135 GIBUL P983 GINPA GINPA2L
Aircraft B738/M-SDE2E3FGHIRWXY/LB1

Departure

Time N/A
Airport Koltsovo Airport (USSS)

Arrival

Time 2026-05-07 18:37
Airport Roshchino International Airport (USTR)
Time Latitude Longitude Altitude Speed Heading
2026-05-07 18:25 57.35825 64.03464 8668 ft 407 kts 107°
2026-05-07 18:25 57.35089 64.08496 8131 ft 400 kts 107°
2026-05-07 18:25 57.34379 64.13410 7648 ft 392 kts 106°
2026-05-07 18:25 57.33680 64.18265 6999 ft 389 kts 106°
2026-05-07 18:26 57.32984 64.23086 6411 ft 386 kts 106°
2026-05-07 18:26 57.32313 64.27735 6334 ft 368 kts 107°
2026-05-07 18:26 57.31667 64.32191 6323 ft 350 kts 107°
2026-05-07 18:26 57.31055 64.36429 6327 ft 333 kts 107°
2026-05-07 18:27 57.30376 64.40399 6333 ft 316 kts 115°
2026-05-07 18:27 57.29436 64.44012 6080 ft 309 kts 120°
2026-05-07 18:27 57.28420 64.47471 5830 ft 304 kts 121°
2026-05-07 18:27 57.27404 64.50859 5594 ft 299 kts 121°
2026-05-07 18:28 57.26422 64.54165 5339 ft 295 kts 120°
2026-05-07 18:28 57.25456 64.57479 5081 ft 291 kts 120°
2026-05-07 18:28 57.24511 64.60752 4869 ft 287 kts 120°
2026-05-07 18:28 57.23589 64.63969 4653 ft 281 kts 120°
2026-05-07 18:29 57.22682 64.67142 4453 ft 278 kts 119°
2026-05-07 18:29 57.21782 64.70294 4280 ft 276 kts 120°
2026-05-07 18:29 57.20887 64.73420 4080 ft 275 kts 119°
2026-05-07 18:29 57.20005 64.76510 3874 ft 270 kts 118°
2026-05-07 18:30 57.19148 64.79510 3695 ft 266 kts 118°
2026-05-07 18:30 57.18291 64.82506 3528 ft 263 kts 117°
2026-05-07 18:30 57.17440 64.85482 3379 ft 261 kts 117°
2026-05-07 18:30 57.16593 64.88439 3197 ft 260 kts 117°
2026-05-07 18:31 57.15750 64.91370 3035 ft 258 kts 117°
2026-05-07 18:31 57.14908 64.94300 2954 ft 261 kts 116°
2026-05-07 18:31 57.13860 64.97020 2820 ft 260 kts 132°
2026-05-07 18:31 57.12551 64.99247 2934 ft 249 kts 136°
2026-05-07 18:32 57.11293 65.01274 2959 ft 238 kts 136°
2026-05-07 18:32 57.10082 65.03245 2963 ft 227 kts 135°
2026-05-07 18:32 57.08942 65.05130 3024 ft 214 kts 135°
2026-05-07 18:32 57.08154 65.07325 2954 ft 200 kts 102°
2026-05-07 18:33 57.08331 65.09782 2727 ft 197 kts 61°
2026-05-07 18:33 57.09104 65.11829 2512 ft 192 kts 56°
2026-05-07 18:33 57.09902 65.13761 2293 ft 189 kts 53°
2026-05-07 18:33 57.10759 65.15570 2072 ft 184 kts 50°
2026-05-07 18:34 57.11594 65.17265 1845 ft 171 kts 50°
2026-05-07 18:34 57.12351 65.18802 1623 ft 157 kts 50°
2026-05-07 18:34 57.13056 65.20207 1445 ft 140 kts 49°
2026-05-07 18:34 57.13689 65.21530 1308 ft 139 kts 52°
2026-05-07 18:35 57.14355 65.22883 1099 ft 145 kts 48°
2026-05-07 18:35 57.15046 65.24268 896 ft 147 kts 49°
2026-05-07 18:35 57.15728 65.25685 741 ft 150 kts 49°
2026-05-07 18:35 57.16427 65.27098 533 ft 148 kts 48°
2026-05-07 18:36 57.17100 65.28464 385 ft 143 kts 48°
2026-05-07 18:36 57.17684 65.29654 383 ft 104 kts 47°
2026-05-07 18:36 57.18067 65.30430 373 ft 60 kts 47°
2026-05-07 18:36 57.18312 65.30923 365 ft 50 kts 48°
2026-05-07 18:37 57.18539 65.31380 356 ft 47 kts 47°
2026-05-07 18:37 57.18694 65.31697 348 ft 13 kts 50°
2026-05-07 18:37 57.18671 65.31846 332 ft 16 kts 134°
2026-05-07 18:37 57.18587 65.31989 332 ft 16 kts 138°
2026-05-07 18:38 57.18505 65.32124 332 ft 16 kts 138°
2026-05-07 18:38 57.18464 65.32296 330 ft 14 kts 90°
2026-05-07 18:38 57.18464 65.32312 329 ft 8 kts 89°